EW9665 Weather Reports


time (UTC)temp
C
wind
direction
speed
KPH
gust
KPH
rain 1hr
cm
rain 24hr
cm
rain mn
cm
humidity
%
barometer
mb
20190425034654 10 153 4.8 14.5 0.00 0.20 0.00 73 1002.6
20190425033532 10 152 1.6 19.3 0.00 0.20 0.00 74 1002.6
20190425033235 10 111 6.4 12.9 0.00 0.20 0.00 74 1002.4
20190425032507 10 138 4.8 12.9 0.00 0.20 0.00 74 1002.5
20190425032017 10 134 8.0 12.9 0.00 0.20 0.00 74 1002.5
20190425031634 10 118 8.0 14.5 0.00 0.20 0.00 74 1002.4
20190425030527 10 146 4.8 16.1 0.00 0.20 0.00 74 1002.5
20190425030117 10 127 6.4 16.1 0.00 0.20 0.00 75 1002.5
20190425025557 10 181 4.8 11.3 0.00 0.20 0.00 75 1002.4
20190425025004 10 115 4.8 11.3 0.00 0.20 0.00 76 1002.3
20190425024555 10 130 4.8 14.5 0.00 0.20 0.00 76 1002.3
20190425024042 10 134 6.4 14.5 0.00 0.20 0.00 76 1002.2
20190425023032 10 171 4.8 14.5 0.00 0.20 0.00 76 1002.3
20190425022541 10 176 6.4 14.5 0.00 0.20 0.00 76 1002.3
20190425022101 10 111 4.8 14.5 0.00 0.20 0.00 76 1002.3
20190425021510 10 146 4.8 14.5 0.00 0.20 0.00 76 1002.1
20190425021039 10 155 6.4 14.5 0.00 0.20 0.00 76 1002.1
20190425020603 10 138 3.2 12.9 0.00 0.20 0.00 77 1002.1
20190425020004 10 131 4.8 14.5 0.00 0.20 0.00 78 1002.0
20190425015535 10 116 4.8 14.5 0.00 0.20 0.00 78 1002.0
20190425015050 10 97 3.2 11.3 0.00 0.20 0.00 79 1001.9
20190425014025 10 135 4.8 14.5 0.00 0.20 0.00 79 1002.1
20190425013536 10 174 4.8 14.5 0.00 0.20 0.00 79 1002.2
20190425013121 10 186 3.2 16.1 0.00 0.20 0.00 80 1002.3
20190425012507 10 163 4.8 16.1 0.00 0.20 0.00 80 1002.4
20190425012026 10 180 6.4 12.9 0.00 0.20 0.00 81 1002.4
20190425011650 10 154 3.2 19.3 0.00 0.20 0.00 81 1002.4
20190425011057 10 171 3.2 19.3 0.00 0.20 0.00 81 1002.4
20190425010504 9 144 4.8 14.5 0.00 0.20 0.00 81 1002.4
20190425010025 9 121 6.4 14.5 0.00 0.20 0.00 81 1002.3
20190425005545 9 116 3.2 12.9 0.00 0.20 0.00 82 1002.4
20190425005004 10 128 4.8 14.5 0.00 0.20 0.00 82 1002.4
20190425004553 10 76 3.2 12.9 0.00 0.20 0.00 82 1002.4
20190425004043 10 113 6.4 16.1 0.00 0.20 0.00 82 1002.5
20190425003553 10 132 6.4 16.1 0.00 0.20 0.00 82 1002.6
20190425003002 10 162 4.8 19.3 0.00 0.20 0.00 82 1002.5
20190425002517 9 155 4.8 19.3 0.00 0.20 0.00 83 1002.5
20190425002039 9 122 9.7 19.3 0.00 0.20 0.00 83 1002.5
20190425001739 9 122 3.2 17.7 0.00 0.20 0.00 84 1002.5
20190425000513 9 95 4.8 11.3 0.00 0.20 0.00 85 1002.5
20190425000127 8 101 4.8 17.7 0.00 0.20 0.00 85 1002.5
20190424235555 8 126 4.8 17.7 0.00 0.20 0.00 85 1002.5
20190424235005 8 117 4.8 12.9 0.00 0.20 0.00 85 1002.4
20190424234546 8 120 3.2 11.3 0.00 0.20 0.00 85 1002.2
20190424234052 8 163 4.8 11.3 0.00 0.20 0.00 85 1002.2
20190424233504 8 116 3.2 12.9 0.00 0.20 0.00 85 1002.2
20190424233013 8 150 3.2 12.9 0.00 0.20 0.00 85 1002.2
20190424232535 8 141 3.2 12.9 0.00 0.20 0.00 84 1002.2
20190424232043 8 160 3.2 11.3 0.00 0.20 0.00 84 1002.3
20190424231644 8 136 1.6 8.0 0.00 0.20 0.00 84 1002.4
20190424231101 9 113 3.2 11.3 0.00 0.20 0.00 84 1002.3
20190424230531 9 116 3.2 11.3 0.00 0.20 0.00 84 1002.4
20190424230138 9 152 4.8 11.3 0.00 0.20 0.00 84 1002.3
20190424225537 9 137 1.6 9.7 0.00 0.20 0.00 84 1002.4
20190424225103 9 119 1.6 11.3 0.00 0.20 0.00 84 1002.4
20190424224510 9 115 4.8 11.3 0.00 0.20 0.00 84 1002.5
20190424224031 9 113 3.2 11.3 0.00 0.20 0.00 84 1002.6
20190424223539 9 158 4.8 12.9 0.00 0.20 0.00 84 1002.5
20190424222052 10 161 1.6 12.9 0.00 0.20 0.00 84 1002.7
20190424220019 10 173 3.2 12.9 0.00 0.20 0.20 84 1002.9
20190424215523 10 183 4.8 11.3 0.00 0.20 0.20 84 1002.9
20190424215041 10 163 4.8 11.3 0.00 0.20 0.20 84 1002.8
20190424214632 10 148 3.2 11.3 0.00 0.20 0.20 84 1002.8
20190424214024 10 153 4.8 9.7 0.00 0.20 0.20 84 1002.8
20190424213529 10 148 1.6 8.0 0.00 0.20 0.20 84 1002.9
20190424213143 10 154 4.8 9.7 0.00 0.20 0.20 84 1002.9
20190424212032 10 148 1.6 9.7 0.00 0.20 0.20 84 1002.8
20190424211725 10 171 3.2 9.7 0.00 0.20 0.20 83 1002.8
20190424210515 10 152 3.2 12.9 0.00 0.20 0.20 83 1002.5
20190424210144 10 191 4.8 12.9 0.00 0.20 0.20 83 1002.5
20190424205557 11 159 4.8 16.1 0.00 0.20 0.20 83 1002.5
20190424205004 11 159 6.4 16.1 0.00 0.20 0.20 82 1002.3
20190424204534 11 186 4.8 16.1 0.00 0.20 0.20 82 1002.4
20190424204047 11 177 6.4 16.1 0.00 0.20 0.20 82 1002.4
20190424203020 11 167 1.6 12.9 0.00 0.20 0.20 82 1002.3
20190424202543 11 128 4.8 12.9 0.00 0.20 0.20 82 1002.3
20190424201511 11 157 4.8 12.9 0.00 0.20 0.20 82 1002.4
20190424201031 11 213 3.2 12.9 0.00 0.20 0.20 82 1002.4
20190424200551 11 180 3.2 12.9 0.00 0.20 0.20 82 1002.4
20190424195524 11 108 3.2 11.3 0.00 0.20 0.20 82 1002.2
20190424195044 11 148 3.2 11.3 0.00 0.20 0.20 82 1002.0
20190424194634 11 174 3.2 14.5 0.00 0.20 0.20 82 1001.8
20190424194030 11 155 4.8 14.5 0.00 0.20 0.20 82 1001.7
20190424193055 11 169 3.2 12.9 0.00 0.20 0.20 81 1001.9
20190424192507 11 173 4.8 19.3 0.00 0.20 0.20 81 1002.1
20190424192053 11 126 4.8 19.3 0.00 0.20 0.20 81 1002.2
20190424191534 11 182 6.4 16.1 0.00 0.20 0.20 81 1002.2
20190424191010 11 157 4.8 14.5 0.00 0.20 0.20 81 1002.2
20190424190543 11 154 4.8 16.1 0.00 0.20 0.20 81 1002.2
20190424190045 11 119 4.8 16.1 0.00 0.20 0.20 81 1001.9
20190424185507 11 117 4.8 16.1 0.00 0.20 0.20 81 1001.8
20190424184618 11 145 4.8 12.9 0.00 0.20 0.20 81 1001.5
20190424184008 11 122 4.8 14.5 0.00 0.20 0.20 81 1001.4
20190424183535 11 141 6.4 14.5 0.00 0.20 0.20 81 1001.4
20190424183159 11 116 6.4 14.5 0.00 0.20 0.20 81 1001.0
20190424182516 11 159 3.2 17.7 0.00 0.20 0.20 80 1000.8
20190424182041 11 139 6.4 22.5 0.00 0.20 0.20 80 1000.6
20190424181715 11 179 4.8 22.5 0.00 0.20 0.20 80 1000.7
20190424180005 12 132 4.8 17.7 0.03 0.20 0.20 80 1000.7
20190424175513 12 163 8.0 17.7 0.03 0.20 0.20 79 1000.7
20190424175012 12 134 4.8 16.1 0.03 0.20 0.20 79 1000.9
20190424174540 12 192 9.7 17.7 0.03 0.20 0.20 79 1000.7
20190424174035 12 146 4.8 19.3 0.03 0.20 0.20 78 1000.7
20190424173547 12 157 6.4 19.3 0.05 0.20 0.20 78 1000.7
20190424173104 12 148 9.7 17.7 0.05 0.20 0.20 79 1000.7
20190424172556 12 130 8.0 17.7 0.05 0.20 0.20 79 1000.7
20190424172105 12 128 6.4 17.7 0.05 0.20 0.20 79 1000.6
20190424171503 12 179 8.0 14.5 0.05 0.20 0.20 78 1000.4
20190424171004 12 118 8.0 16.1 0.03 0.18 0.18 77 999.5
20190424170505 12 142 4.8 16.1 0.05 0.18 0.18 78 999.7
20190424170025 12 153 4.8 14.5 0.05 0.18 0.18 78 999.9
20190424165514 12 135 8.0 14.5 0.05 0.18 0.18 77 999.4
20190424165029 12 101 6.4 14.5 0.08 0.18 0.18 77 999.8
20190424164613 12 194 6.4 17.7 0.10 0.18 0.18 78 999.8
20190424164039 12 116 8.0 17.7 0.10 0.18 0.18 78 999.7
20190424163550 12 196 3.2 11.3 0.08 0.15 0.15 79 999.6
20190424163154 12 148 1.6 11.3 0.08 0.15 0.15 79 999.5
20190424162556 12 144 3.2 14.5 0.08 0.15 0.15 78 999.5
20190424162103 13 146 6.4 14.5 0.08 0.15 0.15 77 999.7
20190424161806 13 150 3.2 19.3 0.08 0.15 0.15 77 999.7
20190424161004 13 144 4.8 16.1 0.08 0.15 0.15 75 999.8
20190424160512 13 202 6.4 20.9 0.05 0.15 0.15 74 999.9
20190424160042 14 182 8.0 25.7 0.05 0.13 0.13 71 999.9
20190424155535 14 188 9.7 35.4 0.05 0.13 0.13 69 1000.0
20190424155032 15 197 16.1 35.4 0.03 0.10 0.10 66 1000.0
20190424154619 15 144 12.9 27.4 0.00 0.08 0.08 66 999.8
20190424154045 16 155 9.7 29.0 0.00 0.08 0.08 64 999.6
20190424153601 16 178 14.5 38.6 0.00 0.08 0.08 63 999.2
20190424152013 17 186 9.7 16.1 0.00 0.08 0.08 61 998.8
20190424151537 17 192 6.4 16.1 0.00 0.08 0.08 63 998.7
20190424151051 17 141 8.0 20.9 0.00 0.08 0.08 63 998.6
20190424150551 17 205 9.7 16.1 0.00 0.08 0.08 64 998.4
20190424150121 17 158 8.0 16.1 0.00 0.08 0.08 63 998.3
20190424145559 17 155 6.4 17.7 0.00 0.08 0.08 65 998.3
20190424145059 17 213 4.8 19.3 0.00 0.08 0.08 66 998.3
20190424144521 17 187 6.4 24.1 0.03 0.08 0.08 64 998.4
20190424144009 17 200 12.9 24.1 0.08 0.08 0.08 65 998.6
20190424143530 17 215 6.4 25.7 0.08 0.08 0.08 68 998.6
20190424143109 16 163 8.0 25.7 0.08 0.08 0.08 68 998.7
20190424142545 16 142 9.7 19.3 0.08 0.08 0.08 70 998.9
20190424142049 16 194 8.0 22.5 0.08 0.08 0.08 70 999.0
20190424141649 16 232 8.0 24.1 0.08 0.08 0.08 71 998.9
20190424141053 16 192 9.7 29.0 0.08 0.08 0.08 72 999.0
20190424140021 16 219 12.9 37.0 0.08 0.08 0.08 77 999.0
20190424135510 16 202 17.7 37.0 0.08 0.08 0.08 77 999.0
20190424135020 16 148 12.9 40.2 0.08 0.08 0.08 76 998.8
20190424134612 17 217 20.9 40.2 0.05 0.05 0.05 65 998.9
20190424134042 20 178 11.3 24.1 0.00 0.00 0.00 54 998.4
20190424133552 20 219 14.5 27.4 0.00 0.00 0.00 52 997.9
20190424133117 20 184 3.2 29.0 0.00 0.00 0.00 52 997.7
20190424132603 21 225 14.5 32.2 0.00 0.00 0.00 50 997.6
20190424131523 21 162 9.7 33.8 0.00 0.00 0.00 48 997.5
20190424131012 22 188 9.7 25.7 0.00 0.00 0.00 47 997.4
20190424130533 22 180 8.0 30.6 0.00 0.00 0.00 47 997.4
20190424130020 22 226 14.5 53.1 0.00 0.00 0.00 45 997.4
20190424125536 22 121 16.1 53.1 0.00 0.00 0.00 45 997.4
20190424125041 22 230 14.5 29.0 0.00 0.00 0.00 46 997.5
20190424124714 22 231 8.0 32.2 0.00 0.00 0.00 50 997.5
20190424124050 22 171 11.3 32.2 0.00 0.00 0.00 47 997.5
20190424123032 21 113 8.0 32.2 0.00 0.00 0.00 48 997.6
20190424122508 21 142 11.3 32.2 0.00 0.00 0.00 48 997.5
20190424122025 21 215 9.7 33.8 0.00 0.00 0.00 48 997.6
20190424121530 21 226 16.1 33.8 0.00 0.00 0.00 48 997.8
20190424121035 21 186 9.7 20.9 0.00 0.00 0.00 50 997.8
20190424120547 21 167 6.4 20.9 0.00 0.00 0.00 51 997.7
20190424120142 20 199 9.7 19.3 0.00 0.00 0.00 49 997.8
20190424115549 21 219 11.3 30.6 0.00 0.00 0.00 48 997.7
20190424115049 21 144 9.7 30.6 0.00 0.00 0.00 47 997.8
20190424114731 21 194 8.0 19.3 0.00 0.00 0.00 49 997.6
20190424114100 21 150 8.0 19.3 0.00 0.00 0.00 48 997.6
20190424113505 21 241 8.0 29.0 0.00 0.00 0.00 49 997.6
20190424113038 21 216 8.0 33.8 0.00 0.00 0.00 47 997.6
20190424112508 21 162 12.9 33.8 0.00 0.00 0.00 48 997.6
20190424112035 21 130 16.1 35.4 0.00 0.00 0.00 48 997.5
20190424111650 21 169 14.5 35.4 0.00 0.00 0.00 48 997.6
20190424111055 21 180 11.3 24.1 0.00 0.00 0.00 48 997.5
20190424105504 21 161 4.8 22.5 0.00 0.00 0.00 49 997.5
20190424105007 21 139 12.9 29.0 0.00 0.00 0.00 50 997.5
20190424104528 21 200 9.7 29.0 0.00 0.00 0.00 49 997.5
20190424104021 21 234 9.7 19.3 0.00 0.00 0.00 50 997.4
20190424103532 20 210 8.0 17.7 0.00 0.00 0.00 54 997.6
20190424103125 21 130 8.0 16.1 0.00 0.00 0.00 54 997.5
20190424102548 21 134 6.4 19.3 0.00 0.00 0.00 52 997.5
20190424102103 20 92 6.4 27.4 0.00 0.00 0.00 54 997.7
20190424101839 20 144 11.3 24.1 0.00 0.00 0.00 55 997.7
20190424100502 20 103 9.7 27.4 0.00 0.00 0.00 55 997.7
20190424100057 20 146 9.7 25.7 0.00 0.00 0.00 55 997.7
20190424095523 20 156 11.3 25.7 0.00 0.00 0.00 54 997.7
20190424095042 20 196 6.4 24.1 0.00 0.00 0.00 55 997.8
20190424094638 20 170 9.7 20.9 0.00 0.00 0.00 56 997.8
20190424094052 20 127 9.7 22.5 0.00 0.00 0.00 56 997.6
20190424093601 20 150 9.7 20.9 0.00 0.00 0.00 57 997.7
20190424093402 19 163 9.7 25.7 0.00 0.00 0.00 57 997.7
20190424092502 19 148 9.7 33.8 0.00 0.00 0.00 57 997.7
20190424092029 19 201 12.9 33.8 0.00 0.00 0.00 57 997.8
20190424091609 19 154 14.5 29.0 0.00 0.00 0.00 57 997.8
20190424091024 19 163 11.3 25.7 0.00 0.00 0.00 58 997.7
20190424090517 19 161 11.3 24.1 0.00 0.00 0.00 57 997.8
20190424090134 19 148 12.9 30.6 0.00 0.00 0.00 59 997.7
20190424085544 19 159 9.7 30.6 0.00 0.00 0.00 59 997.7
20190424085042 19 150 9.7 24.1 0.00 0.00 0.00 60 997.7
20190424084631 19 183 9.7 29.0 0.00 0.00 0.00 60 997.8
20190424084101 18 227 9.7 29.0 0.00 0.00 0.00 61 997.6
20190424083600 18 155 12.9 25.7 0.00 0.00 0.00 60 997.5
20190424083126 18 236 6.4 22.5 0.00 0.00 0.00 62 997.4
20190424081538 18 113 9.7 20.9 0.00 0.00 0.00 63 997.3
20190424081019 18 175 6.4 22.5 0.00 0.00 0.00 63 997.3
20190424080534 18 163 12.9 22.5 0.00 0.00 0.00 62 997.2
20190424080122 18 160 4.8 16.1 0.00 0.00 0.00 64 997.2
20190424075544 18 190 4.8 16.1 0.00 0.00 0.00 64 997.3
20190424075055 17 218 9.7 17.7 0.00 0.00 0.00 64 997.3
20190424074609 17 209 6.4 19.3 0.00 0.00 0.00 65 997.3
20190424074106 17 176 6.4 19.3 0.00 0.00 0.00 66 997.3
20190424073506 17 139 8.0 17.7 0.00 0.00 0.00 65 997.4
20190424073034 17 184 8.0 16.1 0.00 0.00 0.00 66 997.3
20190424072534 17 203 8.0 16.1 0.00 0.00 0.00 65 997.3
20190424072026 17 165 3.2 19.3 0.00 0.00 0.00 67 997.3
20190424071548 17 210 9.7 24.1 0.00 0.00 0.00 65 997.2
20190424071042 16 179 11.3 24.1 0.00 0.00 0.00 66 997.3
20190424070545 16 199 6.4 17.7 0.00 0.00 0.00 67 997.3
20190424070121 16 176 6.4 14.5 0.00 0.00 0.00 67 997.2
20190424065549 16 253 6.4 16.1 0.00 0.00 0.00 67 997.1
20190424061114 15 128 3.2 11.3 0.00 0.00 0.00 72 997.2
20190424061110 15 128 4.8 11.3 0.00 0.00 0.00 71 997.2
20190424060714 15 130 4.8 11.3 0.00 0.00 0.00 72 997.2
20190424060624 15 117 4.8 9.7 0.00 0.00 0.00 72 997.2
20190424060506 15 165 3.2 9.7 0.00 0.00 0.00 72 997.2
20190424060211 15 115 3.2 6.4 0.00 0.00 0.00 72 997.0
20190424060028 15 128 1.6 6.4 0.00 0.00 0.00 73 997.1
20190424055938 15 128 0.0 9.7 0.00 0.00 0.00 72 997.1
20190424055645 14 148 1.6 9.7 0.00 0.00 0.00 73 997.0
20190424055506 14 149 3.2 9.7 0.00 0.00 0.00 73 997.1
20190424055214 14 171 3.2 9.7 0.00 0.00 0.00 73 997.0
20190424055036 14 152 1.6 8.0 0.00 0.00 0.00 73 997.2
20190424054945 14 153 1.6 8.0 0.00 0.00 0.00 73 997.1
20190424054652 14 167 3.2 8.0 0.00 0.00 0.00 74 997.1
20190424054514 14 125 3.2 8.0 0.00 0.00 0.00 74 997.1
20190424054219 13 160 0.0 4.8 0.00 0.00 0.00 74 997.0
20190424054040 13 159 0.0 4.8 0.00 0.00 0.00 74 997.0
20190424053950 13 160 0.0 4.8 0.00 0.00 0.00 75 997.0
20190424053657 13 160 1.6 4.8 0.00 0.00 0.00 75 997.0
20190424053504 13 160 1.6 8.0 0.00 0.00 0.00 74 997.0
20190424053212 13 160 1.6 8.0 0.00 0.00 0.00 74 996.9
20190424053035 13 160 1.6 8.0 0.00 0.00 0.00 74 996.9
20190424052943 13 160 1.6 8.0 0.00 0.00 0.00 74 996.9
20190424052647 13 160 3.2 8.0 0.00 0.00 0.00 74 996.9
20190424052507 13 167 3.2 8.0 0.00 0.00 0.00 74 996.8
20190424052219 13 155 3.2 9.7 0.00 0.00 0.00 74 996.8
20190424052025 13 150 1.6 9.7 0.00 0.00 0.00 74 996.8
20190424052004 13 150 1.6 9.7 0.00 0.00 0.00 74 996.5
20190424051936 13 151 1.6 9.7 0.00 0.00 0.00 74 996.8
20190424051648 13 150 4.8 9.7 0.00 0.00 0.00 74 996.8
20190424051509 13 203 4.8 9.7 0.00 0.00 0.00 74 996.8
20190424051214 13 198 4.8 9.7 0.00 0.00 0.00 75 996.9
20190424051036 13 168 4.8 12.9 0.00 0.00 0.00 75 996.9
20190424050945 13 168 4.8 16.1 0.00 0.00 0.00 75 996.9
20190424050652 13 154 4.8 16.1 0.00 0.00 0.00 75 996.9
20190424050515 13 162 4.8 16.1 0.00 0.00 0.00 75 996.9
20190424050219 13 163 6.4 16.1 0.00 0.00 0.00 75 996.9
20190424050039 13 143 4.8 11.3 0.00 0.00 0.00 75 996.9
20190424045928 13 145 4.8 11.3 0.00 0.00 0.00 75 996.9
20190424045840 13 150 4.8 11.3 0.00 0.00 0.00 75 996.9
20190424045731 13 173 4.8 11.3 0.00 0.00 0.00 75 996.9
20190424045536 13 171 3.2 9.7 0.00 0.00 0.00 75 996.9
20190424045446 13 211 1.6 8.0 0.00 0.00 0.00 75 996.9
20190424045151 13 159 3.2 14.5 0.00 0.00 0.00 75 996.8
20190424045010 13 173 3.2 14.5 0.00 0.00 0.00 76 996.8
20190424044716 13 161 3.2 14.5 0.00 0.00 0.00 76 996.8
20190424044538 13 161 4.8 14.5 0.00 0.00 0.00 76 996.7
20190424044447 13 171 6.4 14.5 0.00 0.00 0.00 76 996.7
20190424044204 13 152 3.2 11.3 0.00 0.00 0.00 76 996.7
20190424044027 13 170 4.8 11.3 0.00 0.00 0.00 77 996.7
20190424043936 13 165 6.4 11.3 0.00 0.00 0.00 77 996.7
20190424043642 13 173 4.8 9.7 0.00 0.00 0.00 78 996.7
20190424043502 13 156 3.2 9.7 0.00 0.00 0.00 78 996.7
20190424043208 12 123 6.4 12.9 0.00 0.00 0.00 79 996.6
20190424043012 12 167 6.4 12.9 0.00 0.00 0.00 80 996.6
20190424042720 12 160 4.8 12.9 0.00 0.00 0.00 80 996.6
20190424042540 12 199 3.2 9.7 0.00 0.00 0.00 81 996.7
20190424042515 12 152 3.2 9.7 0.00 0.00 0.00 81 996.3
20190424042450 12 102 4.8 9.7 0.00 0.00 0.00 81 996.6
20190424042201 12 150 3.2 8.0 0.00 0.00 0.00 82 996.6
20190424042019 12 170 3.2 8.0 0.00 0.00 0.00 82 996.7
20190424041724 12 163 1.6 4.8 0.00 0.00 0.00 82 996.7
20190424041548 12 161 1.6 4.8 0.00 0.00 0.00 82 996.7
20190424041457 12 164 1.6 4.8 0.00 0.00 0.00 82 996.7
20190424041208 11 204 1.6 4.8 0.00 0.00 0.00 82 996.8
20190424041028 11 155 1.6 4.8 0.00 0.00 0.00 83 996.7
20190424040940 11 155 1.6 4.8 0.00 0.00 0.00 83 996.7
20190424040829 11 177 0.0 4.8 0.00 0.00 0.00 83 996.7
20190424040741 11 181 1.6 6.4 0.00 0.00 0.00 83 996.7
20190424040547 11 181 1.6 6.4 0.00 0.00 0.00 83 996.7
20190424040458 11 183 1.6 6.4 0.00 0.00 0.00 83 996.7
20190424040209 11 146 1.6 6.4 0.00 0.00 0.00 83 996.7
20190424040029 11 146 1.6 6.4 0.00 0.00 0.00 83 996.7
20190424035942 11 146 0.0 6.4 0.00 0.00 0.00 83 996.7
20190424035830 11 146 0.0 4.8 0.00 0.00 0.00 83 996.7
20190424035743 11 146 0.0 4.8 0.00 0.00 0.00 83 996.7
20190424035547 11 145 0.0 4.8 0.00 0.00 0.00 82 996.7
20190424035437 11 146 0.0 4.8 0.00 0.00 0.00 82 996.7
20190424035345 11 146 0.0 4.8 0.00 0.00 0.00 82 996.8
20190424035229 11 146 1.6 4.8 0.00 0.00 0.00 82 996.7
20190424035047 11 146 1.6 4.8 0.00 0.00 0.00 82 996.7